User: anonymous   Login
Location: Sungai Kamana Besar
(2.6333°N, 113.4333°E)
Time: 11:00:30
(UTC+00:00)
Language:

ARIANE 5 R/B - Orbit

View from above orbital plane
View from above orbital plane
View from above satellite
View from above satellite

Ground track
Ground track

The orbit data is extracted from the following two-line orbital elements,

1 27462U 02035C   22227.61480441 -.00000051  00000-0  12093-2 0  9998
2 27462   5.3502 264.4838 7152174 124.4210   8.4931  2.22670053163703
Epoch (UTC): 15 August 2022 14:45:19
Eccentricity: 0.7152174
inclination: 5.3502°
perigee height: 676 km
apogee height: 36111 km
right ascension of ascending node: 264.4838°
argument of perigee: 124.4210°
revolutions per day: 2.22670053
mean anomaly at epoch: 8.4931°
orbit number at epoch: 16370

The dashed part of the orbit path shows where the satellite is in the earth's shadow,  

DLR